User: anonymous   Login
Location: Unspecified
(0.0000°N, 0.0000°E)
Time: 13:00:48
(UTC+00:00)
Language:

USA 171 - Orbit

View from above orbital plane
View from above orbital plane
View from above satellite
View from above satellite

Ground track
Ground track

The orbit data is extracted from the following two-line orbital elements,

1 27937U 03041A   20184.18106546 0.00000000  00000-0  00000-0 0    05
2 27937  11.3604  53.9571 0047761 226.7981 132.8114  1.00270000    05
Epoch (UTC): 02 July 2020 04:20:44
Eccentricity: 0.0047761
inclination: 11.3604°
perigee height: 35585 km
apogee height: 35988 km
right ascension of ascending node: 53.9571°
argument of perigee: 226.7981°
revolutions per day: 1.00270000
mean anomaly at epoch: 132.8114°
orbit number at epoch: 0

The dashed part of the orbit path shows where the satellite is in the earth's shadow,  

DLR